軌道要素
Epoch 2024 Oct. 17.0 TT = JDT 2460600.5
T 2024 Sept. 19.14320 TT Rudenko
q 1.1120825 (2000.0) P Q
n 0.19973015 Peri. 37.71351 +0.84836178 -0.52926183
a 2.8985021 Node 354.19853 +0.44964408 +0.73309628
e 0.6163251 Incl. 7.28317 +0.27946824 +0.42714372
P 4.93
>From 660 observations 2014 Oct. 18-2024 Aug. 17, mean residual 0".6.
|